368P/NEAT (2018)

Japanese version
Home page
Updated on November 20, 2018

---------------------------------------------------------------------

* Profile

Designation 368P/2018 L3
Recovery Date June 13, 2018
Magnitude 19.4 mag
Recoverer E. Schwab (Egelsbach, Germany), D. Abreu (European Space Agency's Optical Ground Station at Tenerife)

* Pictures

* Orbital Elements

Epoch 2018 Aug. 30.0 TT = JDT 2458360.5
T 2018 Sept. 14.25047 TT                                MPCW
q   2.0677913            (2000.0)            P               Q
n   0.07589185     Peri.  118.80486     +0.92629912     -0.27163324
a   5.5250891      Node   257.97761     +0.17793330     +0.92623153
e   0.6257452      Incl.   15.48458     +0.33212903     +0.26136286
P  12.99
From 360 observations 2005 July 5-2018 June 14, mean residual 0".6.

* Finding Charts

* Magnitudes Graph

        m1 = 13.5 + 5 log d + 10.0 log r

---------------------------------------------------------------------

The orbital elements are published on M.P.E.C. 2018-L76.
The charts are made with StellaNavigator Ver.10 (AstroArts).
The magnitudes graphs are made with Comet for Windows.

---------------------------------------------------------------------

Copyright(C) Seiichi Yoshida (comet@aerith.net). All rights reserved.